Погода в Староконстантинове

Украина / Хмельницкая область     49˚45′14″N   27˚12′15″E
темп.,
°C
ветер,
м/с
пор.,
м/с
влажн.,
%
обл.,
%
осадки,
мм/ч
давл.,
гПа
погр.,
м
6 декабря, вс
вс623:00+2˚юв81286100 0.0 1027642
02:00+1˚юв7128696 0.0 1027549
05:00−1˚юв8128695 0.0 1027494
08:00−1˚юв8128498 0.0 1028539
11:00юв8136548 0.0 1028630
14:00+2˚юв8135824 0.0 1028711
17:00−1˚юв714580 0.0 1027524
20:00−2˚юв816500 0.0 1028571
7 декабря, пн
пн723:00−3˚юв815490 0.0 1028579
02:00−4˚юв814510 0.0 1028544
05:00−5˚юв814590 0.0 1027504
08:00−5˚юв814630 0.0 1027498
11:00−4˚юв814590 0.0 1027603
14:00−2˚юв812590 0.0 1026637
17:00−5˚вюв713700 0.0 1026665
20:00−5˚вюв814745 0.0 1026594
8 декабря, вт
вт823:00−5˚вюв7148491 0.0 1025548
02:00−4˚вюв6138091 0.0 1025551
05:00−5˚вюв7137786 0.0 1024446
08:00−6˚вюв7127153 0.0 1025477
11:00−4˚вюв6106751 0.0 1025521
14:00−3˚вюв696635 0.0 1024614
17:00−5˚вюв6107668 0.0 1024533
20:00−5˚вюв598071 0.0 1025404
9 декабря, ср
ср923:00−4˚юв588199 0.0 1025422
02:00−3˚вюв5983100 0.0 1025436
05:00−4˚в598394 0.0 1025413
08:00−4˚вюв588393 0.1 1025434
11:00−3˚вюв588098 0.0 1025433
14:00−3˚вюв598398 0.1 1023448
17:00−3˚вюв61087100 0.1 1023393
20:00−3˚вюв61087100 0.1 1022356
10 декабря, чт
чт1023:00−2˚юв61190100 0.1 1022426
02:00−1˚вюв7129299 0.1 1021376
05:00юв71593100 0.0 1019467
08:00+1˚юв81595100 0.0 1019626
11:00+2˚вюв81596100 1.0 1019537
14:00+4˚юв71595100 2.4 1017536
17:00+4˚юв81595100 0.8 1017522
20:00+4˚юв81794100 2.3 1017579